Погода в Ниско

Польша     50°31′10″N   22°08′25″E
темп.,
°C
ветер,
м/с
пор.,
м/с
влажн.,
%
обл.,
%
осадки,
мм/ч
давл.,
гПа
погр.,
м
28 февраля, вс
вс2801:000сз4109126 0.0 1034358
04:00−1зсз39920 0.0 1034309
07:000зсз498936 0.0 1034395
10:00+4зсз586465 0.0 1033674
13:00+7з685742 0.0 10311002
16:00+6зсз711732 0.0 1029848
19:00+5сз5118242 0.0 1030803
22:00+3сз51188100 0.0 1030622
1 марта, пн
пн101:00+3ссз4993100 0.1 1032466
04:00+2ссз3794100 0.0 1032318
07:00+2с359399 0.0 1034400
10:00+3сз2386100 0.0 1035376
13:00+4зсз3482100 0.0 1035501
16:00+5зсз3580100 0.0 1034525
19:00+3зюз349096 0.0 103593
22:00+2з36946 0.0 1035113
2 марта, вт
вт201:00+1зюз36933 0.0 1035121
04:00+1зюз48940 0.0 1033185
07:00+1з49930 0.0 1033231
10:00+6з58730 0.0 1032503
13:00+10з58580 0.0 1032841
16:00+9зсз48600 0.0 1030645
19:00+5зсз47760 0.0 1031145
22:00+3зсз34850 0.0 103276
3 марта, ср
ср301:00+2з33900 0.0 103257
04:00+1з23930 0.0 103146
07:00+1з22953 0.0 103149
10:00+6з23761 0.0 1031401
13:00+9з23611 0.0 1029768
16:00+9зюз24600 0.0 1027449
19:00+5зюз23720 0.0 102732
22:00+4зюз22770 0.0 102722
4 марта, чт
чт401:00+3юз22810 0.0 102522
04:00+2юз23877 0.0 102325
07:00+2юз359212 0.0 1021112
10:00+7юз467381 0.0 1019332
13:00+11зюз585356 0.0 10161118
16:00+10юз486184 0.0 1014393
19:00+7юз5117992 0.0 1013261
22:00+7юз4979100 0.1 1011316